Regional Weather Roundup
Issued by NWS Bismarck, ND

Home | Current Version | Previous Version | Text Only | Print | Product List | Glossary On
Versions: 1 2 3 4 5 6 7 8 9 10 11 12 13 14 15 16 17 18 19 20 21 22 23 24 25 26 27 28 29 30 31 32 33 34 35 36 37 38 39 40 41 42 43 44 45 46 47 48 49 50
486
ASUS43 KBIS 241410
RWRBIS

NWR BROADCAST TEXT
NATIONAL WEATHER SERVICE BISMARCK ND
900 AM CDT SUN JUL 24 2016

NOTE: "FAIR" INDICATES FEW OR NO CLOUDS BELOW 12,000 FEET WITH NO
SIGNIFICANT WEATHER AND/OR OBSTRUCTIONS TO VISIBILITY.


CITY           SKY/WX    TMP DP  RH WIND       PRES   REMARKS
WILLISTON      SUNNY     65  54  67 SW6       30.04R
MINOT          SUNNY     71  56  58 W14       29.97S
MINOT AFB      SUNNY     67  56  68 W17       29.96R
BISMARCK       SUNNY     68  57  68 W7        30.02R
DICKINSON      SUNNY     66  53  63 W9        30.06R
GARRISON         N/A     67  58  72 NW13      30.00S
HETTINGER ARPT MOSUNNY   66  53  63 W6        30.11R
JAMESTOWN      SUNNY     69  60  73 NW13      29.94S
CARRINGTON     FAIR      66  59  77 W14G20    29.96S
HAZEN          FAIR      64  55  72 SW8       30.04R
LINTON         FAIR      64  63  94 NW9       30.05R
MANDAN         FAIR      68  57  68 NW12      30.03R
OAKES            N/A    N/A N/A N/A MISG        N/A
STANLEY        FAIR      64  59  82 NW10      30.04S
WATFORD CITY     N/A    N/A N/A N/A MISG        N/A
$$

CITY           SKY/WX    TMP DP  RH WIND       PRES   REMARKS
GRAND FORKS    MOSUNNY   70  62  76 W12       29.84S
GRAND FORKS AF SUNNY     71  63  75 W12       29.85S
DEVILS LAKE    SUNNY     67  59  75 W16       29.90S
FARGO          SUNNY     70  62  76 W12       29.89R
CAVALIER       FAIR      68  61  77 W13       29.82S
GRAFTON        FAIR      70  63  78 W17       29.84F
GWINNER        FAIR      72  63  73 W15       29.95R
LANGDON        FAIR      66  63  88 W13G20    29.87S
ROLLA            N/A     66  57  72 NW14      29.91S
$$

CITY           SKY/WX    TMP DP  RH WIND       PRES   REMARKS
ABERDEEN       CLOUDY    70  59  68 NW10      30.02R
MOBRIDGE       CLOUDY    68  56  65 W7        30.04R
BUFFALO          N/A     68  50  52 S5        30.06S
RAPID CITY     CLOUDY    66  55  67 SW3       30.14R
GLASGOW        SUNNY     64  56  75 SE6       30.05R
SIDNEY         SUNNY     63  56  78 S5        30.06S
WOLF POINT     SUNNY     63  52  67 CALM      30.06S
GLENDIVE       SUNNY     66  53  63 SE3       30.09R
MILES CITY     SUNNY     67  48  50 SE6       30.08R
BAKER          SUNNY     66  54  65 CALM      30.11R
$$

CITY           SKY/WX    TMP DP  RH WIND       PRES   REMARKS
BILLINGS       SUNNY     62  47  57 SW8       30.13R
GREAT FALLS    SUNNY     62  40  44 S6        30.12F
REGINA         MOSUNNY   63  55  77 NW12      30.00R
ESTEVAN        MOSUNNY   63  57  82 NW13      30.00R
$$





USA.gov is the U.S. government's official web portal to all federal, state and local government web resources and services.